Location: Napoli
(40.8330°N, 14.2500°E)
Time: 22:27:42
(UTC+01:00)

ISS - Visible Passes

Search period start: 17 November 2018 00:00
Search period end: 27 November 2018 00:00
Orbit: 402 x 408 km, 51.6° (Epoch: 18 November)

Date Brightness Start Highest point End Pass type
(mag) Time Alt. Az. Time Alt. Az. Time Alt. Az.
17 Nov -1.0 04:49:20 12° S 04:49:20 12° S 04:49:37 10° SSE visible
22 Nov -1.7 18:39:20 10° SSW 18:40:35 20° S 18:40:35 20° S visible
23 Nov -2.1 17:47:59 10° S 17:50:19 18° SE 17:50:55 18° ESE visible
23 Nov -0.4 19:23:23 10° WSW 19:23:36 11° WSW 19:23:36 11° WSW visible
24 Nov -3.4 18:31:05 10° SW 18:33:49 60° SW 18:33:49 60° SW visible
25 Nov -3.3 17:39:04 10° SSW 17:42:12 45° SE 17:43:57 22° ENE visible
25 Nov -0.6 19:15:59 10° W 19:16:38 14° WNW 19:16:38 14° WNW visible
26 Nov -2.9 18:23:20 10° WSW 18:26:26 40° NNW 18:26:40 39° NNW visible
